Weather History for Alva, OK

Change the Weather History Date:

Wednesday, November 9, 2011

  Actual Average Record
Temperature  
Mean Temperature 44 °F -  
Max Temperature 55 °F 62 °F 82 °F (1949)
Min Temperature 32 °F 39 °F 25 °F (1950)
Degree Days  
Heating Degree Days 22    
Moisture  
Dew Point 32 °F    
Average Humidity 66    
Maximum Humidity 93    
Minimum Humidity 36    
Precipitation  
Precipitation 0.00 in - - ()
Sea Level Pressure  
Sea Level Pressure 30.34 in    
Wind  
Wind Speed 11 mph (NNW)    
Max Wind Speed 18 mph    
Max Gust Speed 28 mph    
Visibility 10 miles    
Events      
Averages and records for this station are not official NWS values.
T = Trace of Precipitation, MM = Missing Value Source: NWS Daily Summary

Daily Weather History Graph

Daily Weather History Graph

Search for Another Location

Airport:

Trip Planner

Search our weather history database for the weather conditions in past years. The results will help you decide how hot, cold, wet, or windy it might be!

Date:

Astronomy

Nov. 09, 2011 Rise Set
Actual Time 7:06 AM CST 5:30 PM CST
Civil Twilight 6:39 AM CST 5:57 PM CST
Nautical Twilight 6:08 AM CST 6:28 PM CST
Astronomical Twilight 5:37 AM CST 6:58 PM CST
Moon 4:43 PM CST (11/9) 6:03 AM CST (11/9)
Length of Visible Light 11h 18m
Length of Day
10h 23m
Waxing Gibbous, 99% of the Moon is Illuminated
Nov 9
Waxing Gibbous
Nov 10
Full
Nov 18
Last Quarter
Nov 25
New
Dec 2
First Quarter

Hourly Weather History & Observations

Time (CST) Temp. Windchill Dew Point Humidity Pressure Visibility Wind Dir Wind Speed Gust Speed Precip Events Conditions
12:00 AM 35.6 °F 28.6 °F 32.0 °F 87% 30.21 in 10.0 mi WNW 9.2 mph - N/A   Clear
12:20 AM 35.6 °F 28.0 °F 32.0 °F 87% 30.21 in 10.0 mi NW 10.4 mph - N/A   Clear
12:40 AM 35.6 °F 28.0 °F 32.0 °F 87% 30.21 in 10.0 mi NW 10.4 mph - N/A   Partly Cloudy
1:00 AM 37.4 °F 30.3 °F 32.0 °F 81% 30.22 in 10.0 mi NW 10.4 mph - N/A   Clear
1:20 AM 37.4 °F 29.3 °F 32.0 °F 81% 30.23 in 10.0 mi NW 12.7 mph - N/A   Clear
1:40 AM 37.4 °F 28.9 °F 32.0 °F 81% 30.22 in 10.0 mi NW 13.8 mph 18.4 mph N/A   Clear
2:00 AM 37.4 °F 28.9 °F 32.0 °F 81% 30.23 in 10.0 mi NW 13.8 mph 18.4 mph N/A   Partly Cloudy
2:20 AM 37.4 °F 29.3 °F 32.0 °F 81% 30.24 in 10.0 mi NW 12.7 mph - N/A   Scattered Clouds
2:40 AM 37.4 °F 30.8 °F 32.0 °F 81% 30.24 in 10.0 mi NW 9.2 mph - N/A   Partly Cloudy
3:00 AM 35.6 °F 28.6 °F 32.0 °F 87% 30.24 in 10.0 mi NW 9.2 mph - N/A   Clear
3:20 AM 35.6 °F 28.6 °F 32.0 °F 87% 30.24 in 10.0 mi NW 9.2 mph - N/A   Clear
3:40 AM 35.6 °F 29.2 °F 32.0 °F 87% 30.25 in 10.0 mi WNW 8.1 mph - N/A   Clear
4:00 AM 35.6 °F 29.2 °F 32.0 °F 87% 30.26 in 10.0 mi West 8.1 mph - N/A   Clear
4:20 AM 35.6 °F 28.0 °F 32.0 °F 87% 30.26 in 10.0 mi NW 10.4 mph - N/A   Clear
4:40 AM 35.6 °F 28.6 °F 32.0 °F 87% 30.27 in 10.0 mi NW 9.2 mph - N/A   Clear
5:00 AM 35.6 °F 28.6 °F 32.0 °F 87% 30.28 in 10.0 mi NW 9.2 mph - N/A   Partly Cloudy
5:20 AM 37.4 °F 30.3 °F 32.0 °F 81% 30.28 in 10.0 mi NW 10.4 mph - N/A   Partly Cloudy
5:40 AM 37.4 °F 29.8 °F 32.0 °F 81% 30.28 in 10.0 mi NW 11.5 mph - N/A   Clear
6:00 AM 35.6 °F 28.6 °F 32.0 °F 87% 30.29 in 10.0 mi NW 9.2 mph - N/A   Clear
6:20 AM 32.0 °F 28.7 °F 30.2 °F 93% 30.29 in 10.0 mi West 3.5 mph - N/A   Partly Cloudy
6:40 AM 33.8 °F 27.0 °F 32.0 °F 93% 30.30 in 10.0 mi WNW 8.1 mph - N/A   Clear
7:00 AM 33.8 °F 29.6 °F 30.2 °F 87% 30.31 in 10.0 mi WSW 4.6 mph - N/A   Clear
7:20 AM 33.8 °F 27.0 °F 32.0 °F 93% 30.32 in 10.0 mi WNW 8.1 mph - N/A   Clear
7:40 AM 35.6 °F 27.1 °F 32.0 °F 87% 30.33 in 10.0 mi NW 12.7 mph - N/A   Clear
8:00 AM 37.4 °F 30.3 °F 32.0 °F 81% 30.35 in 10.0 mi NW 10.4 mph - N/A   Clear
8:20 AM 39.2 °F 32.0 °F 32.0 °F 75% 30.37 in 10.0 mi NNW 11.5 mph - N/A   Clear
8:40 AM 41.0 °F 33.9 °F 32.0 °F 70% 30.38 in 10.0 mi NNW 12.7 mph 18.4 mph N/A   Clear
9:00 AM 41.0 °F 33.5 °F 33.8 °F 76% 30.39 in 10.0 mi NNW 13.8 mph - N/A   Clear
9:20 AM 42.8 °F 35.4 °F 35.6 °F 76% 30.40 in 10.0 mi NNW 15.0 mph - N/A   Clear
9:40 AM 44.6 °F 38.8 °F 35.6 °F 71% 30.40 in 10.0 mi NNW 11.5 mph - N/A   Clear
10:00 AM 46.4 °F 39.8 °F 35.6 °F 66% 30.41 in 10.0 mi NNW 16.1 mph - N/A   Clear
10:20 AM 48.2 °F - 35.6 °F 62% 30.41 in 10.0 mi North 15.0 mph 19.6 mph N/A   Clear
10:40 AM 50.0 °F - 35.6 °F 58% 30.42 in 10.0 mi North 17.3 mph 21.9 mph N/A   Clear
11:00 AM 50.0 °F - 32.0 °F 50% 30.42 in 10.0 mi North 17.3 mph 24.2 mph N/A   Clear
11:20 AM 50.0 °F - 32.0 °F 50% 30.42 in 10.0 mi North 17.3 mph 20.7 mph N/A   Clear
11:40 AM 50.0 °F - 32.0 °F 50% 30.42 in 10.0 mi North 16.1 mph 27.6 mph N/A   Clear
12:00 PM 51.8 °F - 32.0 °F 47% 30.41 in 10.0 mi NNE 12.7 mph - N/A   Clear
12:20 PM 53.6 °F - 32.0 °F 44% 30.41 in 10.0 mi North 17.3 mph 23.0 mph N/A   Clear
12:40 PM 53.6 °F - 30.2 °F 41% 30.40 in 10.0 mi North 18.4 mph 21.9 mph N/A   Clear
1:00 PM 53.6 °F - 28.4 °F 38% 30.40 in 10.0 mi North 16.1 mph 23.0 mph N/A   Clear
1:20 PM 53.6 °F - 30.2 °F 41% 30.40 in 10.0 mi North 15.0 mph 19.6 mph N/A   Clear
1:40 PM 53.6 °F - 28.4 °F 38% 30.39 in 10.0 mi North 11.5 mph 20.7 mph N/A   Clear
2:00 PM 53.6 °F - 30.2 °F 41% 30.39 in 10.0 mi North 13.8 mph - N/A   Clear
2:20 PM 55.4 °F - 28.4 °F 36% 30.39 in 10.0 mi North 16.1 mph 21.9 mph N/A   Clear
2:40 PM 55.4 °F - 30.2 °F 38% 30.39 in 10.0 mi North 13.8 mph 19.6 mph N/A   Clear
2:55 PM 55.4 °F - 28.4 °F 36% 30.39 in 10.0 mi North 15.0 mph - N/A   Clear
3:20 PM 53.6 °F - 30.2 °F 41% 30.38 in 10.0 mi North 8.1 mph 19.6 mph N/A   Clear
3:40 PM 53.6 °F - 30.2 °F 41% 30.38 in 10.0 mi North 10.4 mph - N/A   Clear
4:00 PM 53.6 °F - 28.4 °F 38% 30.38 in 10.0 mi North 13.8 mph 17.3 mph N/A   Clear
4:20 PM 53.6 °F - 28.4 °F 38% 30.38 in 10.0 mi NNW 11.5 mph - N/A   Clear
4:40 PM 51.8 °F - 28.4 °F 41% 30.39 in 10.0 mi NNW 10.4 mph - N/A   Clear
4:55 PM 50.0 °F - 30.2 °F 47% 30.39 in 10.0 mi NNW 8.1 mph - N/A   Clear
5:20 PM 48.2 °F - 30.2 °F 50% 30.39 in 10.0 mi NW 6.9 mph - N/A   Clear
5:40 PM 46.4 °F 42.9 °F 32.0 °F 57% 30.40 in 10.0 mi NW 6.9 mph - N/A   Clear
6:00 PM 44.6 °F 40.7 °F 32.0 °F 61% 30.40 in 10.0 mi NW 6.9 mph - N/A   Clear
6:20 PM 44.6 °F 40.7 °F 32.0 °F 61% 30.40 in 10.0 mi NW 6.9 mph - N/A   Clear
6:40 PM 41.0 °F 35.8 °F 32.0 °F 70% 30.40 in 10.0 mi NW 8.1 mph - N/A   Clear
7:00 PM 41.0 °F 36.4 °F 32.0 °F 70% 30.40 in 10.0 mi NW 6.9 mph - N/A   Partly Cloudy
7:20 PM 39.2 °F 33.6 °F 32.0 °F 75% 30.40 in 10.0 mi WNW 8.1 mph - N/A   Partly Cloudy
7:40 PM 39.2 °F 33.6 °F 32.0 °F 75% 30.40 in 10.0 mi NW 8.1 mph - N/A   Partly Cloudy
8:00 PM 39.2 °F 32.5 °F 32.0 °F 75% 30.40 in 10.0 mi NW 10.4 mph - N/A   Clear
8:20 PM 39.2 °F 33.0 °F 32.0 °F 75% 30.40 in 10.0 mi NW 9.2 mph - N/A   Clear
9:00 PM 39.2 °F 33.0 °F 32.0 °F 75% 30.41 in 10.0 mi NW 9.2 mph - N/A   Clear
9:20 PM 37.4 °F 30.8 °F 32.0 °F 81% 30.41 in 10.0 mi NW 9.2 mph - N/A   Clear
9:40 PM 37.4 °F 31.4 °F 30.2 °F 75% 30.41 in 10.0 mi NW 8.1 mph - N/A   Clear
10:00 PM 37.4 °F 32.8 °F 30.2 °F 75% 30.41 in 10.0 mi NW 5.8 mph - N/A   Clear
10:20 PM 35.6 °F 29.9 °F 30.2 °F 81% 30.41 in 10.0 mi West 6.9 mph - N/A   Clear
10:40 PM 37.4 °F 32.1 °F 30.2 °F 75% 30.41 in 10.0 mi WNW 6.9 mph - N/A   Clear
11:00 PM 35.6 °F 29.2 °F 32.0 °F 87% 30.42 in 10.0 mi WNW 8.1 mph - N/A   Clear
11:20 PM 35.6 °F 29.2 °F 30.2 °F 81% 30.42 in 10.0 mi WNW 8.1 mph - N/A   Clear
11:40 PM 35.6 °F 28.6 °F 32.0 °F 87% 30.42 in 10.0 mi WNW 9.2 mph - N/A   Clear